Location: Cabeza de los Veneras
(40.2000°N, 5.2000°W)
Time: 03:38:03
(UTC+00:00)

Cosmos 2297 Rocket - Pass Details

Date: 18 April 2024
Orbit: 840 x 841 km, 71.0° (Epoch: 25 May)

Event Time Altitude Azimuth Distance (km) Brightness Sun altitude
Rises 20:30:55 0° 345° (NNW) 3,403 6.1 -16.2°
Reaches altitude 10° 20:33:40 10° 355° (N) 2,464 5.1 -16.7°
Maximum altitude 20:38:39 31° 57° (ENE) 1,434 3.2 -17.5°
Enters shadow 20:40:34 25° 92° (E) 1,627 3.2 -17.8°
